Location: Les Salelles
(44.4192°N, 4.1044°E)
Time: 10:08:49
(UTC+00:00)

NOSS 3-1 (A) - Pass Details

Date: 20 January 2021
Orbit: 735 x 1477 km, 63.4° (Epoch: 26 February)

Event Time Altitude Azimuth Distance (km) Brightness Sun altitude
Rises 19:55:38 0° 322° (NW) 3,950 7.2 -35.2°
Reaches altitude 10° 19:58:09 10° 322° (NW) 3,087 6.5 -35.7°
Enters shadow 20:04:19 65° 325° (NW) 1,406 4.2 -36.7°
